Location: Camerons Lookout
(40.9833°S, 175.9333°E)
Time: 17:35:00
(UTC+00:00)

Terra - Pass Details

Date: 14 January 2026
Orbit: 689 x 691 km, 98.0° (Epoch: 18 February)

Event Time Altitude Azimuth Distance (km) Brightness Sun altitude
Rises 09:07:40 0° 160° (SSE) 3,100 5.5 -12.7°
Reaches altitude 10° 09:10:04 10° 152° (SSE) 2,174 4.6 -13.0°
Maximum altitude 09:14:33 40° 82° (E) 1,020 2.3 -13.6°
Enters shadow 09:17:32 19° 21° (NNE) 1,628 3.2 -14.0°
